{"data":{"norad_id":67076,"epoch":"2026-05-25T02:37:25.286016Z","epoch_age_seconds":55681,"freshness":"FRESH","line1":"1 67076U 25298B   26145.10932044  .00002755  00000+0  23853-3 0  9995","line2":"2 67076  70.0011 181.8008 0003629 266.3026  93.7718 14.98334321 24669","mean_motion":14.98334321,"eccentricity":0.0003629,"inclination_deg":70.0011,"raan_deg":181.8008,"arg_perigee_deg":266.3026,"mean_anomaly_deg":93.7718,"bstar":0.00023853,"rev_number":2466,"period_min":96.106721965691,"perigee_km":569.52030848953,"apogee_km":574.56474879141,"semimajor_km":6950.1795286405,"source":"CELESTRAK","updated_at":"2026-05-25T13:38:21.443016Z"}}